SCP
0 0 0 0 0 0 0 0 0 0 0 0 0 0 0 0 0 0 0 0 0 0 0 0 0 0 0 0 0 1 0 0 0 0 0 0 0 0 0 0 0 0 0 0 0 0 0 0 0 0 1 1 0 0
0 0 0 0 0 0 0 0 0 0 0 0 0 0 0 0 0 0 0 0 0 0 0 0 0 0 0 0 0 0 2 2 0 0 0 0 0 0 0 0 0 0 0 0 0 0 1 1 1 1 1 1 1 0
0 0 0 0 0 0 0 0 0 0 0 0 0 0 0 0 0 0 0 0 0 0 0 0 0 0 0 0 0 0 1 2 2 1 1 1 0 0 0 0 0 0 0 0 0 0 0 0 0 1 0 0 0 0
0 0 0 0 0 0 0 0 0 0 0 0 0 0 0 0 0 0 0 0 0 0 0 0 0 0 0 0 0 0 0 1 2 1 1 0 0 1 1 1 0 0 0 0 0 0 0 0 1 1 0 0 0 0
0 0 0 0 0 0 0 0 0 0 0 0 0 0 0 0 0 0 0 0 0 0 0 0 0 0 0 0 0 0 0 1 1 1 0 0 1 0 1 0 0 0 0 0 0 1 1 0 1 0 0 0 0 0
0 0 0 0 0 0 0 0 0 0 0 0 0 0 0 0 0 0 0 0 0 0 0 0 0 0 0 0 0 0 1 1 0 0 0 0 1 0 0 0 0 0 0 1 0 0 0 0 0 1 0 0 0 0
0 0 0 0 0 0 0 0 0 0 0 0 0 0 0 0 0 0 0 0 0 0 0 0 0 0 0 0 0 1 0 0 0 0 0 0 0 0 0 0 0 0 0 0 0 0 0 0 1 0 1 1 0 1
0 0 0 0 0 0 0 0 0 0 0 0 0 0 0 0 0 0 0 0 0 0 0 0 0 0 0 0 0 0 0 0 0 0 0 0 0 0 0 0 0 0 0 0 0 0 0 0 0 0 0 1 1 1
0 0 0 0 0 0 0 0 0 0 0 0 0 0 0 0 0 0 0 0 0 0 0 0 0 0 0 0 0 0 0 0 0 0 0 0 0 0 0 0 0 0 0 0 0 0 0 0 0 0 0 1 1 1
0 0 0 0 0 0 0 0 0 0 0 0 0 0 0 0 0 0 0 0 0 0 0 0 0 0 0 0 0 0 0 0 0 0 0 0 0 0 0 0 0 0 0 0 0 0 0 0 0 0 0 0 0 0
0 0 0 0 0 0 0 0 0 0 0 0 0 0 0 0 0 0 0 0 0 0 0 0 0 0 0 0 0 0 0 0 0 0 0 0 0 0 0 0 0 0 0 0 0 0 1 0 0 0 0 0 0 0
0 0 0 0 0 0 0 0 0 0 0 0 0 0 0 0 0 0 0 0 0 0 0 0 0 0 0 1 1 0 0 0 0 0 0 0 0 0 0 0 0 1 0 0 0 0 0 0 0 0 0 0 0 0
0 0 0 0 0 0 0 0 0 0 0 0 0 0 0 0 0 0 0 0 0 0 0 0 0 0 0 1 1 1 0 0 0 0 0 0 1 0 0 0 0 0 0 0 0 0 0 0 0 0 0 0 0 0
0 0 0 0 0 0 0 0 0 0 0 0 0 0 0 0 0 0 0 0 0 0 0 0 0 0 1 1 1 0 0 0 0 0 0 0 1 0 0 0 0 0 0 0 0 0 0 0 0 0 0 0 0 0
0 0 0 0 0 0 0 0 0 0 0 0 0 0 0 0 0 0 0 0 0 0 0 0 0 0 0 1 0 0 0 0 0 0 0 1 1 1 0 0 0 0 0 1 0 0 0 0 0 0 0 0 0 0
0 0 0 0 0 0 0 0 0 0 0 0 0 0 0 0 0 0 0 0 0 0 0 0 0 0 0 0 0 0 0 0 0 0 1 1 1 1 1 0 0 0 0 0 0 0 0 0 0 0 0 0 0 0
0 0 0 0 0 0 0 0 0 0 0 0 0 0 0 0 0 0 0 0 0 0 0 0 0 0 0 0 0 0 0 0 0 0 1 1 1 1 1 1 0 0 0 0 0 0 0 0 0 0 0 0 0 0
0 0 0 0 0 0 0 0 0 0 0 0 0 -0 0 0 0 0 0 0 0 0 0 0 0 0 0 0 0 0 0 0 1 1 1 1 1 1 1 1 0 0 0 0 0 0 0 0 0 0 0 0 0 0
0 0 0 0 0 0 0 0 0 0 -0 -0 0 0 0 0 0 0 0 0 0 0 0 0 0 0 0 0 0 0 0 1 1 1 1 1 1 1 1 1 0 0 0 0 0 0 0 0 0 0 0 0 0 0
0 0 0 0 0 0 0 0 -0 -0 0 0 0 -0 -0 0 0 0 0 0 0 0 0 0 0 0 0 1 1 1 1 1 1 0 0 1 1 1 0 0 0 0 0 0 0 0 0 0 0 0 0 0 0 0
0 0 0 0 0 0 0 0 0 0 0 0 0 0 0 0 0 0 0 0 0 0 1 0 0 0 0 0 0 0 0 0 0 0 0 0 0 0 0 0 0 0 0 0 0 0 0 0 0 0 0 0 0 0
0 0 0 0 0 0 -0 0 0 0 0 0 0 0 0 0 0 0 0 0 0 0 0 1 0 0 0 0 0 0 0 0 0 0 0 0 0 0 0 0 0 0 0 0 0 0 0 0 0 0 0 0 0 0
0 0 0 0 -0 -0 -0 0 0 0 0 0 0 0 0 0 0 0 0 0 0 0 0 0 0 0 0 0 0 0 0 0 0 0 0 0 0 0 0 0 0 0 0 0 0 0 0 0 0 0 0 0 0 0
0 0 0 0 -0 -0 0 0 0 0 0 0 0 0 0 0 0 0 0 0 0 0 0 0 0 0 0 0 0 0 0 0 0 0 0 0 0 0 0 0 0 0 0 0 0 0 0 0 0 0 0 0 0 0
0 0 0 0 0 0 0 0 0 0 0 0 0 0 0 0 0 0 0 0 0 0 0 0 0 0 0 0 0 0 0 0 0 0 0 0 0 0 0 0 0 0 0 0 0 0 0 0 0 0 0 0 0 0
-0 -0 0 0 0 0 0 0 0 0 0 0 0 0 0 0 0 0 0 0 0 0 0 0 0 0 0 0 0 0 0 0 0 0 0 0 0 0 0 0 0 0 0 0 0 0 0 0 0 0 0 0 0 0
-0 -0 0 0 0 -0 -0 -0 -0 0 0 0 0 0 0 0 0 0 0 0 0 0 0 0 0 0 0 0 0 0 0 0 0 0 0 0 0 0 0 0 0 0 0 0 0 0 0 0 0 0 0 0 0 0
0 -0 -0 0 0 0 -0 -0 0 0 0 0 -0 -0 0 0 0 0 0 0 0 0 0 0 0 0 0 0 0 0 0 0 0 0 0 0 0 0 0 0 0 0 0 0 0 0 0 0 0 0 0 0 0 0
0 0 0 -0 0 0 0 0 0 0 0 0 0 0 0 0 0 0 0 0 0 0 0 0 0 0 0 0 0 0 0 0 0 0 0 0 0 0 0 0 0 0 0 0 0 0 0 0 0 0 0 0 0 0
0 0 0 0 0 0 0 0 0 0 0 0 0 0 0 0 0 0 0 0 0 0 0 0 0 0 0 0 0 0 0 0 0 0 0 0 0 0 0 0 0 0 0 0 0 0 0 0 0 0 0 0 0 0
0 0 0 0 0 0 0 0 0 0 0 0 0 0 0 0 0 0 0 0 0 0 0 0 0 0 0 0 0 0 0 0 0 0 0 0 0 0 0 0 0 0 0 0 0 0 0 0 0 0 0 0 0 0
0 0 0 -0 0 0 0 0 0 0 0 0 0 0 0 0 0 0 0 0 0 0 0 0 0 0 0 0 0 0 0 0 0 0 0 0 0 0 0 0 0 0 0 0 0 0 0 0 0 0 0 0 0 0
0 0 0 0 0 0 0 0 0 0 0 0 0 0 0 0 0 0 0 0 0 0 0 0 0 0 0 0 0 0 0 0 0 0 0 0 0 0 0 0 0 0 0 0 0 0 0 0 0 0 0 0 0 0
Wind_Speed_500mb
28 26 25 23 21 21 23 23 22 26 29 29 30 32 28 26 23 21 15 22 16 13 19 11 7 7 6 1 7 8 8 9 9 10 7 6 8 5 8 1 4 6 6 5 4 8 8 6 5 9 10 20 22 25
28 26 22 20 17 20 25 26 22 25 29 30 33 33 29 28 25 23 11 23 24 20 17 21 26 24 23 15 15 7 10 2 3 5 5 5 8 7 4 9 6 6 6 7 6 9 10 4 10 13 17 19 22 26
24 22 20 17 16 21 34 31 25 25 27 30 34 33 30 29 27 26 16 18 16 15 33 35 26 16 21 14 17 10 5 5 3 5 3 1 5 5 10 7 5 10 6 8 7 7 8 15 10 7 9 14 23 23
22 22 21 19 19 29 32 23 22 25 25 24 31 32 30 29 28 27 23 20 20 8 13 14 15 21 23 22 18 26 15 10 6 4 9 7 6 6 2 5 12 10 12 11 17 26 14 5 6 9 14 18 18 20
19 20 22 22 26 30 22 17 20 23 29 24 33 34 30 29 27 26 29 34 31 8 11 16 23 18 20 16 14 19 20 11 11 10 11 7 2 7 3 7 16 15 18 15 15 16 11 16 11 19 16 14 20 21
18 18 20 27 30 31 21 16 21 24 38 17 30 32 30 29 23 15 10 31 37 34 10 7 8 12 17 22 18 19 16 11 10 11 7 4 1 7 7 10 12 14 15 11 17 13 15 21 19 9 15 20 24 21
17 15 16 20 25 22 17 14 21 25 37 33 22 29 29 28 28 22 7 11 44 31 9 11 9 13 16 18 17 17 17 9 8 6 9 6 9 9 8 18 11 11 14 17 17 14 17 8 4 16 19 21 20 18
19 19 19 20 18 14 18 15 19 27 24 25 25 24 26 25 25 35 31 4 42 26 10 9 7 15 23 22 22 18 19 14 7 5 5 10 7 11 9 16 18 17 13 12 8 9 10 7 13 16 16 16 15 13
20 20 20 19 17 17 16 17 16 24 26 26 22 20 18 17 15 17 20 22 25 12 10 12 13 13 25 23 19 16 18 12 3 11 10 9 10 12 13 17 12 8 9 9 5 3 4 7 12 13 13 12 9 7
22 22 21 19 18 17 14 18 24 17 31 29 26 11 13 18 20 17 15 17 19 19 15 14 29 10 25 30 27 24 16 12 10 13 8 10 19 26 16 16 14 9 5 4 8 4 2 6 8 10 9 8 7 6
25 23 21 19 19 17 14 24 24 29 35 28 15 15 5 21 21 14 14 24 22 15 24 28 31 20 17 20 18 21 13 15 13 12 11 12 13 22 21 19 16 11 8 9 8 7 4 4 4 6 8 10 10 10
25 22 21 19 18 16 19 31 33 34 26 25 20 14 15 15 15 15 12 16 14 24 26 54 34 23 10 9 13 15 11 11 11 24 10 11 11 19 16 14 15 16 14 12 10 9 7 7 5 7 10 11 13 17
23 22 23 20 18 16 24 39 39 41 23 13 10 10 16 17 9 17 27 19 16 18 24 51 36 21 9 11 6 11 16 15 18 12 11 7 21 23 19 17 16 17 16 13 10 8 8 7 6 9 13 14 16 18
24 24 27 23 19 18 27 35 38 37 18 10 16 11 14 14 15 13 24 29 29 27 38 45 44 23 11 16 7 11 7 11 18 17 18 14 28 27 23 20 20 18 15 12 9 7 6 5 8 11 14 18 16 15
26 27 30 27 19 22 36 31 38 43 22 11 11 11 15 27 22 37 29 48 44 31 34 30 29 30 16 8 7 2 11 14 15 23 8 23 31 28 25 22 20 17 15 13 11 9 8 8 11 14 17 17 16 16
29 30 31 21 20 31 40 30 33 24 12 9 13 12 21 28 35 26 25 38 51 44 33 30 18 17 17 9 13 13 7 12 12 9 20 31 32 28 24 22 20 18 17 15 14 15 12 12 15 17 18 18 18 19
33 35 17 20 31 44 40 37 28 12 12 12 17 24 28 32 45 37 47 46 45 41 25 22 19 19 11 19 22 6 21 9 16 22 25 29 35 30 26 22 20 18 19 19 17 14 12 12 12 14 16 18 17 18
38 19 20 30 43 44 39 21 21 14 17 32 18 22 37 33 28 29 27 33 32 47 45 23 30 17 28 26 26 16 11 14 20 27 29 31 30 28 25 23 21 18 17 14 12 10 9 10 10 13 15 19 17 20
23 20 20 45 44 19 15 17 16 11 31 35 45 29 25 28 29 26 19 29 26 27 16 11 15 22 16 8 11 25 28 28 31 30 29 28 26 25 24 21 18 16 12 9 7 4 3 6 8 12 14 17 19 20
27 30 28 43 43 8 10 10 15 14 10 18 16 12 10 14 13 11 16 23 22 16 11 9 1 6 6 11 16 24 25 31 37 38 29 25 23 23 20 17 15 13 8 4 3 1 3 6 10 11 13 17 19 22
24 30 39 40 41 6 6 7 14 13 11 6 3 6 6 2 1 8 12 11 7 6 4 4 14 15 12 17 25 34 35 31 30 31 33 30 23 19 16 15 11 5 2 6 9 7 4 5 6 10 15 18 20 22
15 42 23 29 7 9 11 10 11 8 4 5 9 12 3 6 5 8 11 13 10 11 7 10 25 25 16 25 31 33 39 40 38 35 32 28 21 14 9 5 1 4 4 5 3 3 3 6 13 18 22 21 20 18
36 23 17 12 6 6 13 11 9 6 3 4 10 6 5 6 4 10 11 15 8 20 21 33 38 44 31 37 38 41 33 28 27 23 19 16 14 12 9 6 4 2 1 1 4 8 13 20 18 18 20 20 22 24
28 12 6 7 14 8 11 8 4 6 4 3 6 7 5 9 21 18 9 16 22 21 27 29 19 19 24 30 31 31 28 22 21 19 16 13 12 11 10 8 6 5 5 10 13 16 17 18 20 21 22 24 27 29
6 6 6 12 17 7 3 2 4 11 9 10 6 9 7 12 6 7 7 14 24 17 15 10 15 24 32 32 30 30 27 23 21 21 19 15 11 7 5 5 6 8 12 15 19 21 23 23 24 25 26 29 29 33
11 13 9 5 6 3 5 7 8 7 1 8 6 7 13 10 8 8 7 15 20 26 28 26 25 34 38 34 33 32 30 25 20 21 22 18 15 11 11 13 15 14 12 15 15 17 19 20 21 23 27 33 39 44
4 8 3 4 3 7 12 11 21 11 5 8 7 9 6 8 7 8 8 17 18 29 29 31 32 34 33 30 30 28 25 24 23 18 15 15 15 15 14 15 15 13 14 13 13 15 18 23 29 34 39 43 44 43
8 12 7 9 11 10 6 6 6 5 6 7 10 5 5 7 6 7 4 14 21 23 22 28 29 26 23 22 20 18 17 18 17 15 15 15 16 17 17 17 17 21 17 16 20 23 27 31 35 36 36 36 37 35
9 9 8 16 12 15 16 12 9 9 7 5 6 6 9 10 14 11 16 16 17 18 20 20 21 20 20 18 19 19 17 18 19 20 20 19 18 16 22 19 20 22 25 26 31 32 32 35 32 31 31 32 32 33
14 14 11 15 10 11 14 14 18 15 16 17 26 48 47 40 32 27 27 24 22 23 22 20 19 20 21 19 16 20 21 19 18 17 17 18 21 24 25 25 25 26 28 33 34 34 36 35 36 38 37 37 37 36
10 17 25 23 17 20 20 26 33 35 42 48 40 47 34 26 27 35 33 27 26 22 18 20 20 21 21 21 20 14 14 21 22 22 22 20 23 26 28 28 28 29 29 30 34 37 39 41 43 45 48 48 47 46
17 16 21 24 21 17 19 19 24 30 29 29 22 20 19 14 12 12 26 21 20 19 20 16 13 14 14 13 12 15 19 21 28 34 40 42 45 46 46 40 45 48 48 49 54 43 44 51 43 43 35 39 42 39
16 17 15 11 8 8 10 8 10 13 15 13 11 14 16 11 8 6 12 18 20 21 22 17 15 15 16 17 20 23 25 29 34 37 39 40 41 43 43 41 44 44 42 41 40 41 43 45 49 54 58 57 58 56
Wind_Direction_500mb
229 237 243 249 259 273 284 282 263 242 233 226 216 210 214 217 216 215 230 217 206 253 261 253 258 295 305 310 286 36 218 200 199 233 261 176 249 158 232 42 281 269 267 186 238 263 257 74 171 291 5 325 323 317
227 230 235 239 256 276 285 281 268 237 230 221 213 208 211 215 213 213 226 223 225 240 258 257 250 250 241 258 297 278 325 289 7 235 225 169 189 184 283 198 154 227 340 348 286 9 34 324 305 304 302 306 323 316
213 217 223 238 258 287 288 270 258 230 227 219 209 207 208 213 212 212 220 219 226 261 278 258 257 272 250 253 234 249 182 319 252 218 182 63 206 250 202 197 203 180 189 264 293 140 317 317 309 308 309 308 318 319
210 220 230 241 264 275 286 280 240 218 218 210 203 210 208 211 213 214 213 217 202 260 267 235 235 250 255 256 245 227 258 308 259 225 233 224 230 223 179 15 268 19 164 273 270 270 286 166 353 341 328 323 328 329
218 226 228 238 266 287 292 275 222 210 195 203 207 207 208 208 213 220 223 217 210 217 317 268 272 232 226 225 220 228 235 241 229 219 217 206 80 210 217 282 259 204 262 247 292 0 313 305 326 323 330 337 341 335
221 232 237 242 264 287 290 260 211 203 205 208 206 205 205 204 204 209 253 236 219 223 298 276 245 235 218 219 215 208 212 227 234 238 216 193 239 252 236 271 287 254 253 261 279 300 285 279 307 339 336 337 334 334
224 241 252 255 267 284 294 253 205 201 202 201 211 198 203 202 196 193 243 215 201 202 242 263 222 193 187 177 190 192 202 216 227 217 229 223 195 217 254 254 257 243 269 280 275 270 273 263 320 323 334 334 336 331
241 252 260 269 282 297 309 230 200 196 200 207 194 195 204 207 216 225 230 321 186 182 235 259 229 192 181 190 191 196 199 203 202 237 209 226 167 222 257 259 266 271 253 272 254 254 271 317 336 336 328 325 331 333
251 256 258 269 272 291 299 212 197 189 199 189 183 189 203 211 218 220 223 230 198 199 255 227 226 177 172 186 190 172 203 213 190 237 226 210 204 227 241 245 239 238 261 263 261 132 87 10 5 359 347 338 328 321
255 255 256 262 264 282 276 201 186 178 173 174 167 165 202 210 195 191 197 168 184 218 230 252 220 222 188 181 188 176 198 224 212 208 158 228 247 241 224 222 235 270 240 188 223 116 58 38 25 11 4 351 334 314
252 251 252 247 260 276 233 185 173 178 168 166 183 203 196 185 181 192 203 190 192 208 208 220 213 211 212 198 182 208 188 197 237 192 217 208 241 215 213 227 230 212 182 154 130 124 115 85 67 29 10 344 337 320
241 242 239 245 252 269 210 179 173 172 172 184 184 197 165 182 198 207 188 203 202 207 185 203 200 214 170 199 217 177 205 192 235 142 202 224 208 166 174 172 165 160 157 145 144 145 140 121 87 38 4 347 342 330
233 237 229 242 251 254 200 182 172 175 162 196 206 211 189 190 215 200 191 188 202 195 168 193 194 189 166 191 209 192 203 208 130 195 212 216 152 167 166 158 153 156 153 141 135 133 129 116 66 27 7 354 344 343
235 234 230 242 251 229 201 185 186 190 199 218 203 230 216 188 220 204 206 200 202 190 185 186 189 196 170 186 194 205 185 152 210 214 210 169 173 168 163 159 155 154 146 138 130 124 128 88 34 15 7 360 358 1
231 233 235 241 243 212 190 176 175 187 190 242 211 232 217 228 218 206 204 203 201 211 182 179 184 201 180 167 209 132 185 216 205 214 150 155 162 164 166 161 156 145 133 123 116 115 101 54 30 16 12 11 7 1
229 237 239 243 223 193 190 176 164 174 205 250 238 255 240 221 224 217 221 209 197 210 211 209 193 207 196 185 182 190 198 220 180 139 143 155 160 161 160 155 144 134 125 121 117 106 84 56 38 30 23 17 13 6
228 237 255 221 196 185 187 175 193 209 214 239 236 225 264 282 225 216 212 213 194 196 202 203 202 204 186 210 220 219 220 199 161 144 150 162 158 154 151 146 138 130 124 124 121 105 83 53 46 34 23 17 19 14
228 244 218 189 181 187 176 170 180 217 233 231 253 236 241 245 250 241 216 204 189 206 213 212 204 207 208 206 197 162 178 154 148 145 148 152 150 148 150 142 132 126 128 127 124 108 75 54 33 11 4 358 357 352
237 206 196 180 179 158 157 190 202 260 227 214 235 251 261 255 246 241 221 206 202 196 208 205 211 215 206 208 170 163 165 159 144 141 143 146 144 147 142 138 137 134 136 134 133 105 51 14 359 354 351 352 345 343
195 189 195 186 168 181 193 214 202 236 250 207 220 258 251 265 269 241 216 193 186 182 204 224 10 108 151 151 154 156 147 146 148 139 135 134 139 140 139 141 145 147 140 111 252 271 338 342 343 348 351 355 353 340
193 190 176 194 199 282 266 250 224 222 257 250 12 315 301 26 118 180 155 139 128 69 103 48 75 68 76 111 125 128 127 138 142 141 136 132 132 134 135 140 139 155 165 269 280 298 337 334 349 355 343 330 331 329
165 173 184 182 158 233 263 247 274 272 265 241 140 226 196 114 110 32 67 53 53 36 33 91 79 109 98 94 104 114 121 122 120 117 123 123 121 119 130 125 229 259 267 265 286 320 341 348 339 327 318 317 326 322
152 146 109 159 187 244 280 241 234 227 154 151 218 26 10 119 71 121 62 39 45 67 86 89 99 96 97 102 109 110 105 108 110 113 114 117 118 129 144 157 165 150 170 36 354 322 319 316 319 316 310 316 316 317
147 152 181 198 198 247 252 182 179 152 188 129 91 82 16 51 59 64 39 12 25 109 102 117 142 165 119 96 87 92 90 94 98 100 95 107 111 106 109 100 75 32 348 317 313 315 314 309 309 308 306 309 313 315
137 208 205 229 216 194 331 95 104 62 29 26 72 115 94 88 57 98 62 26 33 89 106 71 65 84 87 85 78 81 87 82 87 88 74 70 69 61 48 17 348 327 329 316 306 301 302 301 302 302 304 307 316 312
203 188 207 258 150 117 45 61 59 102 97 53 9 1 76 79 66 75 59 29 37 45 58 65 83 85 80 81 83 75 70 69 78 71 54 48 40 23 353 337 325 323 336 324 312 306 303 304 306 311 309 309 312 313
58 52 37 13 36 128 118 123 148 143 154 121 157 163 132 85 77 69 58 33 48 64 67 80 78 80 81 76 70 65 61 57 56 52 34 21 10 2 350 331 319 312 328 328 322 326 322 318 315 315 313 311 310 310
21 20 50 27 79 58 108 99 99 103 114 112 136 91 70 52 83 80 60 65 76 77 75 85 83 74 69 62 54 47 34 27 12 8 351 341 336 331 336 324 315 327 323 315 315 312 312 315 316 316 315 313 313 314
35 18 60 61 67 49 35 28 40 47 26 40 91 83 91 72 75 93 94 69 76 72 68 61 59 53 57 50 47 44 32 20 12 3 352 344 344 344 344 334 320 311 305 302 307 314 310 318 314 317 318 315 317 317
29 24 57 44 55 55 43 51 63 52 61 90 106 108 95 82 71 71 68 70 71 68 59 53 47 43 43 46 41 36 29 26 23 18 10 354 339 332 332 328 321 313 307 305 303 300 302 305 307 308 305 305 307 309
52 77 82 83 70 61 62 75 85 84 93 99 109 108 106 103 75 58 55 51 52 55 61 55 47 45 43 39 37 42 28 17 12 7 357 357 350 347 346 342 334 331 325 319 311 303 300 299 301 301 297 295 295 297
67 73 94 96 84 67 83 84 89 93 97 96 95 97 104 94 73 48 34 44 50 45 39 45 40 32 29 27 12 355 343 332 327 327 323 321 317 316 318 321 318 313 311 307 301 304 305 301 296 281 281 312 312 308
84 87 90 87 94 92 69 103 102 96 83 79 72 68 65 76 87 105 64 52 52 45 41 38 36 23 5 351 339 332 326 323 319 317 310 311 311 311 313 317 318 320 321 320 316 313 311 315 313 312 314 315 318 319
Wind_Speed_850mb
28 26 25 23 21 21 23 23 22 26 29 29 30 32 28 26 23 21 15 22 16 13 19 11 7 7 6 1 7 8 8 9 9 10 7 6 8 5 8 1 4 6 6 5 4 8 8 6 5 9 10 20 22 25
28 26 22 20 17 20 25 26 22 25 29 30 33 33 29 28 25 23 11 23 24 20 17 21 26 24 23 15 15 7 10 2 3 5 5 5 8 7 4 9 6 6 6 7 6 9 10 4 10 13 17 19 22 26
24 22 20 17 16 21 34 31 25 25 27 30 34 33 30 29 27 26 16 18 16 15 33 35 26 16 21 14 17 10 5 5 3 5 3 1 5 5 10 7 5 10 6 8 7 7 8 15 10 7 9 14 23 23
22 22 21 19 19 29 32 23 22 25 25 24 31 32 30 29 28 27 23 20 20 8 13 14 15 21 23 22 18 26 15 10 6 4 9 7 6 6 2 5 12 10 12 11 17 26 14 5 6 9 14 18 18 20
19 20 22 22 26 30 22 17 20 23 29 24 33 34 30 29 27 26 29 34 31 8 11 16 23 18 20 16 14 19 20 11 11 10 11 7 2 7 3 7 16 15 18 15 15 16 11 16 11 19 16 14 20 21
18 18 20 27 30 31 21 16 21 24 38 17 30 32 30 29 23 15 10 31 37 34 10 7 8 12 17 22 18 19 16 11 10 11 7 4 1 7 7 10 12 14 15 11 17 13 15 21 19 9 15 20 24 21
17 15 16 20 25 22 17 14 21 25 37 33 22 29 29 28 28 22 7 11 44 31 9 11 9 13 16 18 17 17 17 9 8 6 9 6 9 9 8 18 11 11 14 17 17 14 17 8 4 16 19 21 20 18
19 19 19 20 18 14 18 15 19 27 24 25 25 24 26 25 25 35 31 4 42 26 10 9 7 15 23 22 22 18 19 14 7 5 5 10 7 11 9 16 18 17 13 12 8 9 10 7 13 16 16 16 15 13
20 20 20 19 17 17 16 17 16 24 26 26 22 20 18 17 15 17 20 22 25 12 10 12 13 13 25 23 19 16 18 12 3 11 10 9 10 12 13 17 12 8 9 9 5 3 4 7 12 13 13 12 9 7
22 22 21 19 18 17 14 18 24 17 31 29 26 11 13 18 20 17 15 17 19 19 15 14 29 10 25 30 27 24 16 12 10 13 8 10 19 26 16 16 14 9 5 4 8 4 2 6 8 10 9 8 7 6
25 23 21 19 19 17 14 24 24 29 35 28 15 15 5 21 21 14 14 24 22 15 24 28 31 20 17 20 18 21 13 15 13 12 11 12 13 22 21 19 16 11 8 9 8 7 4 4 4 6 8 10 10 10
25 22 21 19 18 16 19 31 33 34 26 25 20 14 15 15 15 15 12 16 14 24 26 54 34 23 10 9 13 15 11 11 11 24 10 11 11 19 16 14 15 16 14 12 10 9 7 7 5 7 10 11 13 17
23 22 23 20 18 16 24 39 39 41 23 13 10 10 16 17 9 17 27 19 16 18 24 51 36 21 9 11 6 11 16 15 18 12 11 7 21 23 19 17 16 17 16 13 10 8 8 7 6 9 13 14 16 18
24 24 27 23 19 18 27 35 38 37 18 10 16 11 14 14 15 13 24 29 29 27 38 45 44 23 11 16 7 11 7 11 18 17 18 14 28 27 23 20 20 18 15 12 9 7 6 5 8 11 14 18 16 15
26 27 30 27 19 22 36 31 38 43 22 11 11 11 15 27 22 37 29 48 44 31 34 30 29 30 16 8 7 2 11 14 15 23 8 23 31 28 25 22 20 17 15 13 11 9 8 8 11 14 17 17 16 16
29 30 31 21 20 31 40 30 33 24 12 9 13 12 21 28 35 26 25 38 51 44 33 30 18 17 17 9 13 13 7 12 12 9 20 31 32 28 24 22 20 18 17 15 14 15 12 12 15 17 18 18 18 19
33 35 17 20 31 44 40 37 28 12 12 12 17 24 28 32 45 37 47 46 45 41 25 22 19 19 11 19 22 6 21 9 16 22 25 29 35 30 26 22 20 18 19 19 17 14 12 12 12 14 16 18 17 18
38 19 20 30 43 44 39 21 21 14 17 32 18 22 37 33 28 29 27 33 32 47 45 23 30 17 28 26 26 16 11 14 20 27 29 31 30 28 25 23 21 18 17 14 12 10 9 10 10 13 15 19 17 20
23 20 20 45 44 19 15 17 16 11 31 35 45 29 25 28 29 26 19 29 26 27 16 11 15 22 16 8 11 25 28 28 31 30 29 28 26 25 24 21 18 16 12 9 7 4 3 6 8 12 14 17 19 20
27 30 28 43 43 8 10 10 15 14 10 18 16 12 10 14 13 11 16 23 22 16 11 9 1 6 6 11 16 24 25 31 37 38 29 25 23 23 20 17 15 13 8 4 3 1 3 6 10 11 13 17 19 22
24 30 39 40 41 6 6 7 14 13 11 6 3 6 6 2 1 8 12 11 7 6 4 4 14 15 12 17 25 34 35 31 30 31 33 30 23 19 16 15 11 5 2 6 9 7 4 5 6 10 15 18 20 22
15 42 23 29 7 9 11 10 11 8 4 5 9 12 3 6 5 8 11 13 10 11 7 10 25 25 16 25 31 33 39 40 38 35 32 28 21 14 9 5 1 4 4 5 3 3 3 6 13 18 22 21 20 18
36 23 17 12 6 6 13 11 9 6 3 4 10 6 5 6 4 10 11 15 8 20 21 33 38 44 31 37 38 41 33 28 27 23 19 16 14 12 9 6 4 2 1 1 4 8 13 20 18 18 20 20 22 24
28 12 6 7 14 8 11 8 4 6 4 3 6 7 5 9 21 18 9 16 22 21 27 29 19 19 24 30 31 31 28 22 21 19 16 13 12 11 10 8 6 5 5 10 13 16 17 18 20 21 22 24 27 29
6 6 6 12 17 7 3 2 4 11 9 10 6 9 7 12 6 7 7 14 24 17 15 10 15 24 32 32 30 30 27 23 21 21 19 15 11 7 5 5 6 8 12 15 19 21 23 23 24 25 26 29 29 33
11 13 9 5 6 3 5 7 8 7 1 8 6 7 13 10 8 8 7 15 20 26 28 26 25 34 38 34 33 32 30 25 20 21 22 18 15 11 11 13 15 14 12 15 15 17 19 20 21 23 27 33 39 44
4 8 3 4 3 7 12 11 21 11 5 8 7 9 6 8 7 8 8 17 18 29 29 31 32 34 33 30 30 28 25 24 23 18 15 15 15 15 14 15 15 13 14 13 13 15 18 23 29 34 39 43 44 43
8 12 7 9 11 10 6 6 6 5 6 7 10 5 5 7 6 7 4 14 21 23 22 28 29 26 23 22 20 18 17 18 17 15 15 15 16 17 17 17 17 21 17 16 20 23 27 31 35 36 36 36 37 35
9 9 8 16 12 15 16 12 9 9 7 5 6 6 9 10 14 11 16 16 17 18 20 20 21 20 20 18 19 19 17 18 19 20 20 19 18 16 22 19 20 22 25 26 31 32 32 35 32 31 31 32 32 33
14 14 11 15 10 11 14 14 18 15 16 17 26 48 47 40 32 27 27 24 22 23 22 20 19 20 21 19 16 20 21 19 18 17 17 18 21 24 25 25 25 26 28 33 34 34 36 35 36 38 37 37 37 36
10 17 25 23 17 20 20 26 33 35 42 48 40 47 34 26 27 35 33 27 26 22 18 20 20 21 21 21 20 14 14 21 22 22 22 20 23 26 28 28 28 29 29 30 34 37 39 41 43 45 48 48 47 46
17 16 21 24 21 17 19 19 24 30 29 29 22 20 19 14 12 12 26 21 20 19 20 16 13 14 14 13 12 15 19 21 28 34 40 42 45 46 46 40 45 48 48 49 54 43 44 51 43 43 35 39 42 39
16 17 15 11 8 8 10 8 10 13 15 13 11 14 16 11 8 6 12 18 20 21 22 17 15 15 16 17 20 23 25 29 34 37 39 40 41 43 43 41 44 44 42 41 40 41 43 45 49 54 58 57 58 56
Wind_Direction_850mb
229 237 243 249 259 273 284 282 263 242 233 226 216 210 214 217 216 215 230 217 206 253 261 253 258 295 305 310 286 36 218 200 199 233 261 176 249 158 232 42 281 269 267 186 238 263 257 74 171 291 5 325 323 317
227 230 235 239 256 276 285 281 268 237 230 221 213 208 211 215 213 213 226 223 225 240 258 257 250 250 241 258 297 278 325 289 7 235 225 169 189 184 283 198 154 227 340 348 286 9 34 324 305 304 302 306 323 316
213 217 223 238 258 287 288 270 258 230 227 219 209 207 208 213 212 212 220 219 226 261 278 258 257 272 250 253 234 249 182 319 252 218 182 63 206 250 202 197 203 180 189 264 293 140 317 317 309 308 309 308 318 319
210 220 230 241 264 275 286 280 240 218 218 210 203 210 208 211 213 214 213 217 202 260 267 235 235 250 255 256 245 227 258 308 259 225 233 224 230 223 179 15 268 19 164 273 270 270 286 166 353 341 328 323 328 329
218 226 228 238 266 287 292 275 222 210 195 203 207 207 208 208 213 220 223 217 210 217 317 268 272 232 226 225 220 228 235 241 229 219 217 206 80 210 217 282 259 204 262 247 292 0 313 305 326 323 330 337 341 335
221 232 237 242 264 287 290 260 211 203 205 208 206 205 205 204 204 209 253 236 219 223 298 276 245 235 218 219 215 208 212 227 234 238 216 193 239 252 236 271 287 254 253 261 279 300 285 279 307 339 336 337 334 334
224 241 252 255 267 284 294 253 205 201 202 201 211 198 203 202 196 193 243 215 201 202 242 263 222 193 187 177 190 192 202 216 227 217 229 223 195 217 254 254 257 243 269 280 275 270 273 263 320 323 334 334 336 331
241 252 260 269 282 297 309 230 200 196 200 207 194 195 204 207 216 225 230 321 186 182 235 259 229 192 181 190 191 196 199 203 202 237 209 226 167 222 257 259 266 271 253 272 254 254 271 317 336 336 328 325 331 333
251 256 258 269 272 291 299 212 197 189 199 189 183 189 203 211 218 220 223 230 198 199 255 227 226 177 172 186 190 172 203 213 190 237 226 210 204 227 241 245 239 238 261 263 261 132 87 10 5 359 347 338 328 321
255 255 256 262 264 282 276 201 186 178 173 174 167 165 202 210 195 191 197 168 184 218 230 252 220 222 188 181 188 176 198 224 212 208 158 228 247 241 224 222 235 270 240 188 223 116 58 38 25 11 4 351 334 314
252 251 252 247 260 276 233 185 173 178 168 166 183 203 196 185 181 192 203 190 192 208 208 220 213 211 212 198 182 208 188 197 237 192 217 208 241 215 213 227 230 212 182 154 130 124 115 85 67 29 10 344 337 320
241 242 239 245 252 269 210 179 173 172 172 184 184 197 165 182 198 207 188 203 202 207 185 203 200 214 170 199 217 177 205 192 235 142 202 224 208 166 174 172 165 160 157 145 144 145 140 121 87 38 4 347 342 330
233 237 229 242 251 254 200 182 172 175 162 196 206 211 189 190 215 200 191 188 202 195 168 193 194 189 166 191 209 192 203 208 130 195 212 216 152 167 166 158 153 156 153 141 135 133 129 116 66 27 7 354 344 343
235 234 230 242 251 229 201 185 186 190 199 218 203 230 216 188 220 204 206 200 202 190 185 186 189 196 170 186 194 205 185 152 210 214 210 169 173 168 163 159 155 154 146 138 130 124 128 88 34 15 7 360 358 1
231 233 235 241 243 212 190 176 175 187 190 242 211 232 217 228 218 206 204 203 201 211 182 179 184 201 180 167 209 132 185 216 205 214 150 155 162 164 166 161 156 145 133 123 116 115 101 54 30 16 12 11 7 1
229 237 239 243 223 193 190 176 164 174 205 250 238 255 240 221 224 217 221 209 197 210 211 209 193 207 196 185 182 190 198 220 180 139 143 155 160 161 160 155 144 134 125 121 117 106 84 56 38 30 23 17 13 6
228 237 255 221 196 185 187 175 193 209 214 239 236 225 264 282 225 216 212 213 194 196 202 203 202 204 186 210 220 219 220 199 161 144 150 162 158 154 151 146 138 130 124 124 121 105 83 53 46 34 23 17 19 14
228 244 218 189 181 187 176 170 180 217 233 231 253 236 241 245 250 241 216 204 189 206 213 212 204 207 208 206 197 162 178 154 148 145 148 152 150 148 150 142 132 126 128 127 124 108 75 54 33 11 4 358 357 352
237 206 196 180 179 158 157 190 202 260 227 214 235 251 261 255 246 241 221 206 202 196 208 205 211 215 206 208 170 163 165 159 144 141 143 146 144 147 142 138 137 134 136 134 133 105 51 14 359 354 351 352 345 343
195 189 195 186 168 181 193 214 202 236 250 207 220 258 251 265 269 241 216 193 186 182 204 224 10 108 151 151 154 156 147 146 148 139 135 134 139 140 139 141 145 147 140 111 252 271 338 342 343 348 351 355 353 340
193 190 176 194 199 282 266 250 224 222 257 250 12 315 301 26 118 180 155 139 128 69 103 48 75 68 76 111 125 128 127 138 142 141 136 132 132 134 135 140 139 155 165 269 280 298 337 334 349 355 343 330 331 329
165 173 184 182 158 233 263 247 274 272 265 241 140 226 196 114 110 32 67 53 53 36 33 91 79 109 98 94 104 114 121 122 120 117 123 123 121 119 130 125 229 259 267 265 286 320 341 348 339 327 318 317 326 322
152 146 109 159 187 244 280 241 234 227 154 151 218 26 10 119 71 121 62 39 45 67 86 89 99 96 97 102 109 110 105 108 110 113 114 117 118 129 144 157 165 150 170 36 354 322 319 316 319 316 310 316 316 317
147 152 181 198 198 247 252 182 179 152 188 129 91 82 16 51 59 64 39 12 25 109 102 117 142 165 119 96 87 92 90 94 98 100 95 107 111 106 109 100 75 32 348 317 313 315 314 309 309 308 306 309 313 315
137 208 205 229 216 194 331 95 104 62 29 26 72 115 94 88 57 98 62 26 33 89 106 71 65 84 87 85 78 81 87 82 87 88 74 70 69 61 48 17 348 327 329 316 306 301 302 301 302 302 304 307 316 312
203 188 207 258 150 117 45 61 59 102 97 53 9 1 76 79 66 75 59 29 37 45 58 65 83 85 80 81 83 75 70 69 78 71 54 48 40 23 353 337 325 323 336 324 312 306 303 304 306 311 309 309 312 313
58 52 37 13 36 128 118 123 148 143 154 121 157 163 132 85 77 69 58 33 48 64 67 80 78 80 81 76 70 65 61 57 56 52 34 21 10 2 350 331 319 312 328 328 322 326 322 318 315 315 313 311 310 310
21 20 50 27 79 58 108 99 99 103 114 112 136 91 70 52 83 80 60 65 76 77 75 85 83 74 69 62 54 47 34 27 12 8 351 341 336 331 336 324 315 327 323 315 315 312 312 315 316 316 315 313 313 314
35 18 60 61 67 49 35 28 40 47 26 40 91 83 91 72 75 93 94 69 76 72 68 61 59 53 57 50 47 44 32 20 12 3 352 344 344 344 344 334 320 311 305 302 307 314 310 318 314 317 318 315 317 317
29 24 57 44 55 55 43 51 63 52 61 90 106 108 95 82 71 71 68 70 71 68 59 53 47 43 43 46 41 36 29 26 23 18 10 354 339 332 332 328 321 313 307 305 303 300 302 305 307 308 305 305 307 309
52 77 82 83 70 61 62 75 85 84 93 99 109 108 106 103 75 58 55 51 52 55 61 55 47 45 43 39 37 42 28 17 12 7 357 357 350 347 346 342 334 331 325 319 311 303 300 299 301 301 297 295 295 297
67 73 94 96 84 67 83 84 89 93 97 96 95 97 104 94 73 48 34 44 50 45 39 45 40 32 29 27 12 355 343 332 327 327 323 321 317 316 318 321 318 313 311 307 301 304 305 301 296 281 281 312 312 308
84 87 90 87 94 92 69 103 102 96 83 79 72 68 65 76 87 105 64 52 52 45 41 38 36 23 5 351 339 332 326 323 319 317 310 311 311 311 313 317 318 320 321 320 316 313 311 315 313 312 314 315 318 319